Total_Precipitation_Accumulation
1.85 1.87 1.63 1.39 1.31 1.38 1.35 1.43 1.55 1.54 1.56 1.07 0.84 0.63 0.36 0.29 0.20 0.19 0.29 0.37 0.42 0.13 0.02 0.00 0.00 0.01 0.00 0.00 0.02 0.02 0.09 0.13 0.20 0.26 0.24 0.10 0.03 0.01 0.00 0.00 0.00 0.02 0.04 0.06 0.06 0.10 0.01 0.00 0.00 0.00 0.00 0.00 0.00 0.01
2.60 2.18 2.24 1.42 1.06 0.94 0.76 0.82 1.02 1.15 0.99 0.75 0.67 0.47 0.26 0.22 0.21 0.25 0.26 0.29 0.25 0.15 0.01 0.00 0.00 0.00 0.00 0.00 0.02 0.01 0.08 0.12 0.22 0.24 0.19 0.09 0.04 0.01 0.00 0.01 0.00 0.00 0.00 0.00 0.00 0.00 0.00 0.00 0.00 0.00 0.00 0.00 0.00 0.00
2.27 2.53 2.21 2.15 1.63 1.28 1.05 0.95 1.09 1.32 0.90 0.77 0.56 0.31 0.19 0.18 0.17 0.30 0.30 0.23 0.24 0.25 0.05 0.03 0.02 0.00 0.00 0.00 0.00 0.04 0.07 0.15 0.23 0.21 0.32 0.15 0.06 0.04 0.02 0.01 0.00 0.00 0.00 0.00 0.00 0.00 0.00 0.00 0.00 0.00 0.00 0.00 0.00 0.01
1.55 1.90 1.97 2.12 2.22 1.76 1.74 1.55 1.38 1.28 0.85 0.79 0.62 0.37 0.20 0.14 0.16 0.23 0.11 0.10 0.22 0.26 0.19 0.05 0.01 0.02 0.01 0.02 0.02 0.02 0.09 0.17 0.29 0.48 0.33 0.19 0.08 0.03 0.02 0.01 0.00 0.01 0.00 0.00 0.00 0.00 0.00 0.00 0.00 0.00 0.00 0.00 0.00 0.00
1.75 1.64 1.56 1.57 1.75 1.38 1.39 1.47 1.30 1.11 0.82 0.72 0.62 0.37 0.31 0.29 0.20 0.09 0.02 0.07 0.16 0.32 0.34 0.18 0.16 0.01 0.01 0.05 0.04 0.06 0.11 0.30 0.34 0.59 0.57 0.22 0.09 0.06 0.02 0.01 0.00 0.00 0.00 0.00 0.00 0.00 0.00 0.00 0.00 0.00 0.00 0.00 0.00 0.00
1.41 1.48 1.56 1.27 1.24 1.25 1.23 1.06 0.91 0.86 0.83 0.76 0.52 0.43 0.42 0.38 0.33 0.19 0.21 0.36 0.28 0.32 0.60 0.43 0.34 0.16 0.06 0.09 0.09 0.15 0.22 0.43 0.67 0.50 0.53 0.33 0.13 0.20 0.17 0.05 0.00 0.00 0.00 0.00 0.00 0.00 0.00 0.00 0.00 0.00 0.00 0.00 0.00 0.00
1.21 1.32 1.55 1.64 1.13 1.03 1.15 1.16 0.79 0.81 0.78 0.64 0.58 0.49 0.43 0.52 0.45 0.27 0.35 0.64 0.58 0.57 0.69 0.79 0.66 0.48 0.14 0.23 0.27 0.30 0.31 0.55 0.89 0.66 0.41 0.33 0.29 0.53 0.34 0.05 0.00 0.01 0.01 0.01 0.01 0.00 0.00 0.00 0.00 0.00 0.00 0.00 0.00 0.00
1.11 1.11 1.23 1.63 1.37 0.96 0.90 1.16 0.89 0.88 0.76 0.69 0.72 0.78 0.83 1.12 0.99 0.55 0.27 0.40 0.60 0.95 0.98 1.10 0.99 0.96 0.32 0.53 0.46 0.40 0.39 0.48 1.03 0.74 0.34 0.24 0.35 0.35 0.21 0.02 0.05 0.04 0.04 0.02 0.01 0.02 0.01 0.01 0.00 0.00 0.00 0.00 0.00 0.00
1.33 1.18 1.10 1.31 1.60 1.07 0.92 1.09 1.09 0.89 0.85 1.05 1.33 1.58 1.89 1.60 1.11 0.84 0.71 0.81 0.92 1.24 1.07 0.95 0.91 0.80 0.64 0.64 0.48 0.56 0.47 0.57 0.73 0.57 0.24 0.27 0.29 0.29 0.06 0.08 0.11 0.14 0.15 0.17 0.13 0.06 0.06 0.05 0.02 0.03 0.02 0.03 0.04 0.04
1.46 1.51 1.17 1.07 1.47 1.31 1.20 1.22 1.14 1.04 1.30 1.81 1.99 2.03 1.57 0.81 0.72 1.13 2.15 2.43 2.13 1.41 0.97 0.84 0.55 0.45 0.89 0.67 0.60 0.65 0.36 0.56 0.67 0.33 0.27 0.40 0.21 0.03 0.05 0.12 0.09 0.15 0.30 0.34 0.42 0.30 0.17 0.23 0.14 0.10 0.15 0.11 0.12 0.14
1.32 1.45 1.21 1.15 1.19 1.11 1.14 1.30 1.50 1.78 2.05 1.72 1.61 1.48 1.15 0.95 1.20 2.29 3.13 2.41 1.34 0.89 0.66 0.49 0.41 0.37 0.48 0.56 0.39 0.51 0.65 0.53 0.76 0.48 0.36 0.34 0.30 0.12 0.07 0.05 0.04 0.08 0.18 0.14 0.31 0.32 0.20 0.30 0.35 0.25 0.29 0.33 0.34 0.35
1.35 1.40 1.33 1.14 1.10 0.92 1.04 1.37 1.69 1.25 0.99 0.99 0.92 1.02 1.27 2.05 2.55 2.52 2.26 1.15 0.45 0.29 0.27 0.31 0.29 0.33 0.44 0.31 0.61 0.72 0.62 0.56 0.44 0.36 0.53 0.43 0.27 0.18 0.20 0.09 0.06 0.04 0.06 0.07 0.10 0.22 0.18 0.11 0.16 0.19 0.27 0.30 0.29 0.34
1.56 1.51 1.37 1.17 1.12 1.07 1.27 1.56 1.50 1.21 1.01 0.91 1.33 1.89 1.93 2.29 2.40 1.64 0.89 0.42 0.24 0.16 0.17 0.14 0.30 0.29 0.52 0.59 0.89 0.94 0.63 0.38 0.42 0.55 0.45 0.18 0.06 0.03 0.10 0.19 0.20 0.16 0.10 0.25 0.27 0.18 0.11 0.09 0.11 0.14 0.15 0.11 0.10 0.11
1.78 1.72 1.52 1.42 1.44 1.56 1.76 1.72 1.61 1.37 1.33 1.89 2.02 1.99 1.41 1.20 0.72 0.49 0.29 0.23 0.16 0.18 0.19 0.23 0.32 0.35 0.43 0.47 0.66 0.62 0.46 0.45 0.66 0.42 0.23 0.08 0.06 0.04 0.02 0.05 0.10 0.14 0.13 0.24 0.56 0.60 0.44 0.44 0.40 0.30 0.21 0.15 0.12 0.11
1.88 1.95 1.97 2.02 1.96 1.91 1.88 1.80 1.75 1.56 2.02 2.53 2.02 1.22 0.67 0.32 0.15 0.15 0.10 0.13 0.11 0.12 0.17 0.21 0.36 0.41 0.47 0.67 0.61 0.49 0.59 0.59 0.35 0.27 0.18 0.10 0.09 0.08 0.06 0.03 0.03 0.07 0.13 0.16 0.25 0.33 0.40 0.29 0.16 0.20 0.27 0.25 0.17 0.13
2.47 3.22 2.89 2.28 2.15 2.27 2.14 2.24 2.62 2.85 2.93 2.42 1.90 0.78 0.23 0.10 0.11 0.05 0.02 0.03 0.02 0.04 0.21 0.43 0.59 0.62 0.60 0.57 0.56 0.38 0.54 0.43 0.26 0.17 0.10 0.05 0.09 0.07 0.05 0.04 0.01 0.00 0.01 0.06 0.14 0.19 0.24 0.22 0.16 0.13 0.17 0.27 0.23 0.20
3.90 3.92 2.56 2.03 2.29 2.57 2.76 3.19 3.88 4.00 3.46 2.53 0.94 0.24 0.12 0.12 0.08 0.05 0.02 0.01 0.02 0.12 0.31 0.60 0.90 0.55 0.55 0.70 0.44 0.34 0.42 0.27 0.14 0.07 0.03 0.01 0.01 0.01 0.01 0.00 0.00 0.00 0.01 0.03 0.09 0.13 0.20 0.25 0.24 0.18 0.16 0.16 0.16 0.22
3.60 2.38 1.95 2.10 2.67 3.70 4.95 4.93 4.21 3.71 2.55 1.02 0.26 0.09 0.04 0.05 0.05 0.07 0.04 0.03 0.04 0.17 0.43 0.79 0.62 0.53 0.31 0.20 0.17 0.28 0.22 0.10 0.07 0.04 0.02 0.01 0.00 0.00 0.01 0.02 0.00 0.03 0.12 0.18 0.17 0.16 0.17 0.17 0.16 0.12 0.11 0.10 0.10 0.09
2.87 2.18 2.40 2.68 3.18 4.33 5.05 5.38 4.07 2.75 0.98 0.34 0.20 0.14 0.09 0.08 0.08 0.09 0.09 0.11 0.12 0.26 0.57 0.74 0.80 0.39 0.07 0.03 0.03 0.04 0.04 0.02 0.01 0.01 0.01 0.00 0.00 0.00 0.01 0.04 0.06 0.07 0.20 0.14 0.05 0.06 0.05 0.06 0.09 0.10 0.10 0.10 0.11 0.09
3.56 3.53 3.29 3.13 3.56 5.17 5.26 4.34 2.86 1.43 0.70 0.31 0.21 0.16 0.15 0.16 0.18 0.22 0.30 0.26 0.27 0.69 1.05 0.88 0.34 0.08 0.05 0.05 0.04 0.02 0.00 0.00 0.00 0.00 0.00 0.00 0.00 0.00 0.00 0.02 0.05 0.08 0.08 0.08 0.09 0.10 0.09 0.07 0.06 0.06 0.07 0.10 0.14 0.15
5.34 4.80 4.89 4.69 5.24 5.17 4.32 2.71 1.71 0.80 0.39 0.28 0.28 0.20 0.25 0.21 0.21 0.29 0.45 0.51 0.85 1.14 0.75 0.30 0.10 0.07 0.07 0.08 0.07 0.04 0.02 0.02 0.02 0.02 0.02 0.02 0.02 0.01 0.01 0.00 0.00 0.01 0.02 0.03 0.05 0.06 0.08 0.07 0.08 0.09 0.10 0.12 0.14 0.15
5.08 4.72 5.78 6.05 5.80 5.15 3.95 2.20 1.04 0.57 0.34 0.39 0.28 0.25 0.31 0.29 0.23 0.22 0.33 0.76 0.95 0.48 0.24 0.23 0.23 0.17 0.13 0.11 0.13 0.14 0.11 0.06 0.03 0.02 0.01 0.01 0.00 0.00 0.00 0.00 0.00 0.01 0.01 0.01 0.02 0.01 0.02 0.03 0.04 0.10 0.12 0.13 0.15 0.12
4.05 4.37 4.81 4.92 4.77 4.09 2.81 1.28 0.87 0.66 0.46 0.43 0.33 0.34 0.34 0.27 0.28 0.34 0.69 0.55 0.31 0.20 0.20 0.20 0.20 0.24 0.26 0.25 0.27 0.21 0.17 0.12 0.08 0.04 0.02 0.00 0.00 0.00 0.00 0.00 0.00 0.02 0.04 0.03 0.02 0.05 0.05 0.02 0.03 0.07 0.06 0.08 0.16 0.21
4.07 4.89 5.00 4.71 3.36 2.47 1.74 1.40 0.95 0.60 0.61 0.42 0.35 0.31 0.22 0.18 0.35 0.59 0.56 0.20 0.16 0.16 0.23 0.24 0.22 0.24 0.28 0.29 0.29 0.26 0.25 0.20 0.14 0.10 0.07 0.06 0.05 0.03 0.01 0.01 0.02 0.04 0.06 0.07 0.02 0.01 0.01 0.01 0.02 0.06 0.07 0.09 0.14 0.19
5.57 5.87 4.33 3.67 2.17 1.12 0.69 0.51 0.48 0.47 0.47 0.31 0.27 0.23 0.20 0.27 0.44 0.42 0.22 0.12 0.14 0.21 0.27 0.27 0.25 0.24 0.21 0.17 0.15 0.13 0.13 0.20 0.28 0.31 0.25 0.20 0.27 0.28 0.17 0.08 0.04 0.02 0.02 0.05 0.03 0.01 0.00 0.00 0.02 0.04 0.08 0.14 0.22 0.29
4.94 2.83 2.08 1.10 0.69 0.35 0.27 0.25 0.24 0.21 0.22 0.31 0.33 0.31 0.30 0.44 0.57 0.34 0.10 0.15 0.19 0.22 0.20 0.15 0.14 0.12 0.10 0.10 0.15 0.22 0.25 0.28 0.34 0.36 0.29 0.29 0.27 0.23 0.19 0.16 0.12 0.08 0.06 0.08 0.10 0.08 0.05 0.02 0.03 0.06 0.12 0.16 0.30 0.37
3.21 1.87 0.83 0.29 0.23 0.21 0.18 0.16 0.19 0.26 0.31 0.32 0.22 0.20 0.33 0.62 0.35 0.15 0.18 0.20 0.17 0.11 0.06 0.10 0.14 0.15 0.16 0.17 0.17 0.18 0.17 0.18 0.20 0.17 0.22 0.34 0.34 0.28 0.21 0.19 0.17 0.15 0.15 0.15 0.13 0.13 0.12 0.10 0.10 0.13 0.22 0.25 0.27 0.32
1.57 0.56 0.29 0.23 0.16 0.12 0.14 0.16 0.24 0.27 0.22 0.17 0.20 0.19 0.27 0.20 0.11 0.14 0.15 0.17 0.09 0.03 0.05 0.09 0.13 0.15 0.14 0.12 0.14 0.16 0.18 0.21 0.25 0.26 0.30 0.36 0.40 0.41 0.37 0.31 0.32 0.33 0.31 0.23 0.20 0.22 0.21 0.20 0.19 0.23 0.28 0.25 0.18 0.19
0.35 0.20 0.21 0.28 0.22 0.19 0.17 0.14 0.11 0.08 0.06 0.09 0.12 0.09 0.09 0.14 0.16 0.13 0.15 0.08 0.03 0.04 0.06 0.09 0.12 0.14 0.17 0.18 0.20 0.23 0.24 0.24 0.20 0.19 0.15 0.20 0.29 0.41 0.47 0.42 0.44 0.44 0.39 0.37 0.33 0.29 0.31 0.36 0.41 0.48 0.50 0.43 0.32 0.28
0.07 0.02 0.03 0.07 0.14 0.19 0.14 0.10 0.08 0.08 0.09 0.10 0.10 0.11 0.12 0.19 0.26 0.19 0.09 0.04 0.05 0.08 0.11 0.14 0.17 0.19 0.21 0.22 0.23 0.24 0.25 0.28 0.26 0.21 0.23 0.20 0.22 0.32 0.40 0.41 0.45 0.48 0.47 0.44 0.51 0.54 0.53 0.53 0.53 0.51 0.46 0.41 0.37 0.34
0.02 0.01 0.02 0.02 0.03 0.06 0.08 0.09 0.08 0.09 0.10 0.11 0.09 0.06 0.09 0.14 0.16 0.11 0.05 0.04 0.07 0.11 0.16 0.19 0.22 0.27 0.28 0.30 0.31 0.29 0.28 0.32 0.37 0.38 0.36 0.40 0.36 0.34 0.39 0.44 0.46 0.48 0.50 0.48 0.45 0.42 0.41 0.36 0.32 0.31 0.30 0.29 0.29 0.31
0.06 0.03 0.02 0.02 0.03 0.05 0.06 0.06 0.06 0.08 0.09 0.06 0.08 0.07 0.06 0.04 0.04 0.03 0.03 0.06 0.10 0.13 0.17 0.21 0.21 0.26 0.31 0.32 0.34 0.39 0.36 0.35 0.37 0.42 0.41 0.42 0.41 0.39 0.44 0.47 0.49 0.50 0.51 0.51 0.46 0.46 0.44 0.44 0.43 0.40 0.40 0.39 0.38 0.36
0.16 0.13 0.10 0.10 0.12 0.09 0.05 0.06 0.08 0.07 0.05 0.03 0.03 0.03 0.04 0.03 0.02 0.04 0.05 0.07 0.11 0.14 0.16 0.21 0.26 0.28 0.28 0.29 0.32 0.35 0.38 0.40 0.42 0.46 0.51 0.51 0.54 0.59 0.58 0.53 0.51 0.51 0.52 0.49 0.50 0.50 0.52 0.48 0.46 0.45 0.44 0.42 0.41 0.40